sat.trackr.live / text

‹ back to catalog

STARLINK-35098

NORAD 65476 · 2025-195U

PAYLOAD ACTIVE UNKNOWN

§ Identity

Operator
Country
US
Launch date
2025-09-03
Launch site
AFETR
Launch vehicle
Mass (kg)
RCS (m²)

Purposes: comms

External: N2YO · Heavens-Above · Gunter

§ Orbital elements

Epoch: 2026-09-20T05:06:13.602816Z

Period
94.01 min
Inclination
53.1601°
Eccentricity
0.0001316
Mean motion
15.31706858 rev/d
Perigee alt
469.8 km
Apogee alt
471.6 km
Semi-major
6,848.9 km
B*
4.1422e-4
RAAN
72.6793°
Arg perigee
88.3567°
Mean anomaly
271.7585°
Rev number
5,978

§ Raw data

STARLINK-350981 65476U 25195U   26263.21265744  .00012513  00000+0  41422-3 0  99972 65476  53.1601  72.6793 0001316  88.3567 271.7585 15.31706858 59786

JSON: /api/v1/satellites/65476 · /tle

For live sub-satellite position, see the globe view (requires WebGL).

§ Visibility from observer

Set your observer location to see the next 7 days of passes ≥ 10°. The values pass through the URL so the page stays shareable.

No JS? Fill the form by hand. The geolocation button needs JavaScript.